Location: Grantsboro
(35.1404°N, 76.8424°W)
Time: 21:31:35
(UTC+00:00)

Cosmos 2237 Rocket - Pass Details

Date: 18 January 2020
Orbit: 836 x 848 km, 71.0° (Epoch: 27 February)

Event Time Altitude Azimuth Distance (km) Brightness Sun altitude
Rises 01:33:51 0° 323° (NW) 3,390 5.8 -39.2°
Reaches altitude 10° 01:36:44 10° 310° (NW) 2,451 5.1 -39.8°
Enters shadow 01:40:11 23° 273° (W) 1,717 4.3 -40.5°
